Showing default

ATHENA, 46275

Orbit data source: Space-Track

ATHENA, 46275 is a payload satellite owned by PointView Tech (US) in SSO that was launched on Thu, 03 Sep 2020 UTC via a VEGA launch vehicle from the French Guiana (FRGUI). Payload-class satellites include a variety of spacecraft equipped with specific instruments for various scientific and technological missions. These include communications satellites like Starlink; space stations such as the ISS; scientific satellites like the Hubble; Earth observation satellites from companies like Planet Labs, Umbra, and HawkEye 360; GPS; miniature CubeSats for education and research; and military/defense satellites.

Loading next visibility...
Identifier
46275, 2020-061D
Orbit
SSO
Country
Flag of USUS
Related business
Manufacturer
MAXSS/SFLIN
Mission
Operational Commercial Communications
Bus & Motor
SSL-100, Unknown motor
Mass
138 kg wet, 138 kg dry
Launch date (UTC)
2020-09-03 (5 years ago)
Launch vehicle
VEGA
Launch site
French Guiana (FRGUI)
Object type
Payload
Rocket body
Debris
Shape & HBR
Box, Unknown HBR
Radar Cross Section
0.625 m², Medium (>0.1 m² and < 1m²)

Expand to show TLE details & history
Last TLE update: 11 hours ago

TLE from 11 hours ago
0 ATHENA
1 46275U 20061D   26062.14594608  .00017074  00000-0  35257-3 0  9990
2 46275  97.2050 127.0203 0002089  85.6008 274.5480 15.45911667305755
Epoch: 2026-03-03T03:30Z
TLE epoch observation values (Epoch: 2026-03-03T03:30:09.741Z)
Latitude
-0.00005°
Longitude
-86.44948°
Altitude
431.719 km
Speed
7.653 km/s
True Right ascension
08h 28m 04s
True Declination
0° 00' 00"
Sunlit
Object was in full shadow at epoch
Visualization orbit readout
Latitude
Unknown
Longitude
Unknown
Altitude
Unknown
Speed
Unknown
Apparent Right ascension
Unknown
Apparent Declination
Unknown
Sunlit
N/A
Visualization observer readout
Local Sidereal Time
17:56:13
Azimuth
Unknown
Elevation
Unknown
Doppler factor
Unknown
Orbital elements
Apogee altitude
427.045 km
Perigee altitude
424.202 km
Semi-major axis
6,803.76 km
Eccentricity
0.00021
Inclination
97.205°
RAAN
127.0203°
Arg. of periapsis
85.6008°
True anomaly
274.52414°
Mean anomaly
274.548°
Eccentric anomaly
274.53607°
Mean motion
3.8674 °/min
Orbital period
93.09 mins
BSTAR
0.00035257
Loading maneuver chart data...
Computing Atmospheric mass density...
Loading historical data...
Loading historical data...
Loading historical data...
Loading historical data...
Loading historical data...
Loading historical data...
Loading historical data...

Documentation

Showing up to 5 results
|